Location: Apollinopolis Magna
(24.9792°N, 32.8772°E)
Time: 19:57:52
(UTC+00:00)

SL-16 R/B - Pass Details

Date: 02 March 2021
Orbit: 842 x 846 km, 71.0° (Epoch: 10 April)

Event Time Altitude Azimuth Distance (km) Brightness Sun altitude
Rises 16:13:13 0° 209° (SSW) 3,384 5.9 -5.8°
Reaches altitude 10° 16:15:42 10° 213° (SSW) 2,452 5.2 -6.3°
Maximum altitude 16:21:11 53° 290° (WNW) 1,024 3.1 -7.6°
Drops below altitude 10° 16:26:42 10° 7° (N) 2,463 4.5 -8.8°
Sets 16:29:13 0° 12° (NNE) 3,401 5.2 -9.4°
